Location: Moscow
(38.3171°N, 79.0889°W)
Time: 23:10:17
(UTC+00:00)

Cosmos 2100 Rocket - Pass Details

Date: 07 November 2025
Orbit: 954 x 1000 km, 82.9° (Epoch: 14 December)

Event Time Altitude Azimuth Distance (km) Brightness Sun altitude
Rises 22:42:30 0° 187° (S) 3,671 7.3 -6.8°
Reaches altitude 10° 22:45:01 10° 188° (S) 2,720 6.7 -7.3°
Maximum altitude 22:51:15 82° 276° (W) 983 4.1 -8.5°
Drops below altitude 10° 22:57:28 10° 5° (N) 2,706 6.1 -9.7°
Sets 22:59:58 0° 6° (N) 3,651 6.8 -10.2°
